This demonstration page uses our WeatherBlox Daily Observations layout. Learn more.

Left ArrowRight Arrow

Hourly Observations for June 22, 2021

Temp ( °F °C ) Dew Point ( °F °C ) Humidity (%) Winds ( mph kmh ) Pressure ( in mb ) Visibility ( mi km ) Precip ( " mm )
12:53 am 00:53 Cloudy 65 18.3 63 17.2 93 93 N N/A 29.86 1011 10 16 0.00 0.00
1:53 am 01:53 Cloudy 64 17.8 63 17.2 96 96 NW 3 6 29.86 1011 10 16 N/A
2:53 am 02:53 Cloudy with Light Rain 64 17.8 60 15.6 87 87 NNW 9 15 29.87 1011 10 16 0.00 0.00
3:01 am 03:01 Cloudy with Light Rain 63 17.2 55 12.8 76 76 NNW 13 20 29.88 1012 10 16 0.00 0.00
3:53 am 03:53 Mostly Cloudy 61 16.1 51 10.6 70 70 NNW 5 7 29.87 1012 10 16 0.00 0.00
4:53 am 04:53 Cloudy 60 15.6 48 8.9 65 65 N 6 9 29.89 1012 10 16 N/A
5:53 am 05:53 Cloudy 58 14.4 47 8.3 67 67 N 8 13 29.92 1013 10 16 N/A
6:53 am 06:53 Mostly Sunny 57 13.9 49 9.4 74 74 NNW 7 11 29.93 1014 10 16 N/A
7:53 am 07:53 Sunny 59 15 50 10 72 72 N 8 13 29.96 1015 10 16 N/A
8:53 am 08:53 Sunny 61 16.1 47 8.3 60 60 N 6 9 29.99 1016 10 16 N/A
9:53 am 09:53 Sunny 63 17.2 45 7.2 52 52 NNW 9 15 30.01 1016 10 16 N/A
10:53 am 10:53 Mostly Sunny 64 17.8 44 6.7 48 48 N 12 19 30.03 1017 10 16 N/A
11:53 am 11:53 Mostly Sunny 65 18.3 42 5.6 43 43 N 9 15 30.04 1017 10 16 N/A
12:53 pm 12:53 Sunny 66 18.9 41 5 40 40 N 10 17 30.06 1018 10 16 N/A
1:53 pm 13:53 Sunny 67 19.4 42 5.6 41 41 NNW 8 13 30.04 1017 10 16 N/A
2:53 pm 14:53 Sunny 68 20 42 5.6 39 39 WNW 9 15 30.03 1017 10 16 N/A
3:53 pm 15:53 Sunny 70 21.1 42 5.6 37 37 NNW 8 13 30.02 1017 10 16 N/A
4:53 pm 16:53 Sunny 70 21.1 41 5 35 35 VRB 6 9 30.02 1017 10 16 N/A
5:53 pm 17:53 Mostly Sunny 70 21.1 42 5.6 37 37 N N/A 30.02 1017 10 16 N/A
6:53 pm 18:53 Sunny 68 20 43 6.1 40 40 N 6 9 30.03 1017 10 16 N/A
7:53 pm 19:53 Sunny 70 21.1 44 6.7 39 39 N N/A 30.03 1017 10 16 N/A
8:53 pm 20:53 Sunny 61 16.1 54 12.2 78 78 N N/A 30.05 1018 10 16 N/A
9:53 pm 21:53 Clear 57 13.9 54 12.2 90 90 N N/A 30.06 1018 9 14 N/A
10:53 pm 22:53 Clear 55 12.8 53 11.7 93 93 N N/A 30.08 1019 10 16 N/A
11:53 pm 23:53 Clear 54 12.2 52 11.1 93 93 N N/A 30.09 1019 10 16 N/A

Powered by AerisWeather